Date String (YYYY-MM-DD hh:mm:ss) UTC,Instrument flags,Ambient pressure (hPa),Sample flow (lpm),Bypass flow (lpm),Sample temperature (°C),Ambient temperature (°C),ASC tube jacket temperature (°C),LED temperature (°C),Box temperature (°C),Sample RH (%),Span deviation,Mass concentration (μg/m³),Mass concentration (μg/m³),Mass concentration (μg/m³)
DateTimeUTC,F1_M11,P_M11,Q1_M11,Q2_M11,T1_M11,T2_M11,T3_M11,T4_M11,T5_M11,U1_M11,ZSPAN_M11,X0_M11,X2_M11,X1_M11
2021-09-21 02:00:00,,0833.1,4.99,0.00,29.2,28.5,00.0,38.4,31.0,15.8,0000.0,0020.83,0003.79,0001.99
2021-09-21 02:01:00,,0833.2,5.01,0.00,29.2,28.5,00.0,38.4,30.9,15.8,0000.0,0020.03,0003.77,0001.99
2021-09-21 02:02:00,,0833.2,5.00,0.00,29.2,28.5,00.0,38.4,30.9,15.9,0000.0,0018.62,0003.77,0001.98
2021-09-21 02:03:00,,0833.3,4.99,0.00,29.2,28.5,00.0,38.4,30.9,15.9,0000.0,0017.37,0003.73,0001.94
2021-09-21 02:04:00,,0833.5,4.99,0.00,29.2,28.4,00.0,38.4,30.9,15.9,0000.0,0017.02,0003.66,0001.92
2021-09-21 02:05:00,,0833.6,5.00,0.00,29.2,28.4,00.0,38.4,30.9,16.0,0000.0,0016.84,0003.58,0001.91
2021-09-21 02:06:00,,0833.6,5.00,0.00,29.2,28.4,00.0,38.4,30.9,16.0,0000.0,0016.28,0003.55,0001.90
2021-09-21 02:07:00,,0833.6,4.99,0.00,29.2,28.4,00.0,38.3,30.9,16.0,0000.0,0016.91,0003.52,0001.90
2021-09-21 02:08:00,,0833.6,5.00,0.00,29.2,28.4,00.0,38.3,30.9,16.1,0000.0,0016.84,0003.50,0001.91
2021-09-21 02:09:00,,0833.7,5.00,0.00,29.2,28.5,00.0,38.3,30.9,16.1,0000.0,0016.74,0003.48,0001.92
2021-09-21 02:10:00,,0833.7,5.01,0.00,29.2,28.5,00.0,38.3,30.9,16.2,0000.0,0016.36,0003.43,0001.94
2021-09-21 02:11:00,,0833.7,5.00,0.00,29.2,28.5,00.0,38.3,30.9,16.3,0000.0,0015.73,0003.44,0001.94
2021-09-21 02:12:00,,0833.7,4.99,0.00,29.2,28.5,00.0,38.3,31.0,16.4,0000.0,0016.01,0003.43,0001.94
2021-09-21 02:13:00,,0833.8,4.99,0.00,29.2,28.5,00.0,38.3,31.0,16.4,0000.0,0016.27,0003.48,0001.95
2021-09-21 02:14:00,,0833.9,5.00,0.00,29.2,28.5,00.0,38.3,31.0,16.5,0000.0,0016.19,0003.48,0001.98
2021-09-21 02:15:00,,0833.9,5.00,0.00,29.2,28.6,00.0,38.3,31.0,16.5,0000.0,0016.60,0003.48,0001.98
2021-09-21 02:16:00,,0834.0,5.00,0.00,29.3,28.6,00.0,38.3,31.1,16.6,0000.0,0016.24,0003.51,0001.97
2021-09-21 02:17:00,,0834.0,5.01,0.00,29.3,28.7,00.0,38.3,31.1,16.6,0000.0,0016.24,0003.56,0001.98
2021-09-21 02:18:00,,0834.1,4.98,0.00,29.3,28.7,00.0,38.4,31.1,16.8,0000.0,0015.89,0003.63,0001.98
2021-09-21 02:19:00,,0834.1,5.01,0.00,29.3,28.8,00.0,38.4,31.2,16.7,0000.0,0017.01,0003.69,0001.97
2021-09-21 02:20:00,,0834.3,5.00,0.00,29.4,28.8,00.0,38.4,31.2,16.7,0000.0,0017.79,0003.73,0001.98
2021-09-21 02:21:00,,0834.3,5.02,0.00,29.4,28.8,00.0,38.4,31.2,16.8,0000.0,0018.70,0003.80,0001.99
2021-09-21 02:22:00,,0834.3,5.00,0.00,29.4,28.8,00.0,38.4,31.2,16.9,0000.0,0020.53,0003.82,0002.00
2021-09-21 02:23:00,,0834.3,5.00,0.00,29.4,28.8,00.0,38.4,31.2,16.9,0000.0,0020.28,0003.85,0002.01
2021-09-21 02:24:00,,0834.3,4.98,0.00,29.4,28.9,00.0,38.4,31.2,16.9,0000.0,0018.69,0003.84,0002.01
2021-09-21 02:25:00,,0834.3,5.00,0.00,29.4,28.9,00.0,38.4,31.2,16.8,0000.0,0019.43,0003.81,0001.99
2021-09-21 02:26:00,,0834.3,5.01,0.00,29.4,28.9,00.0,38.4,31.2,16.8,0000.0,0018.56,0003.83,0002.00
2021-09-21 02:27:00,,0834.5,5.00,0.00,29.4,28.9,00.0,38.5,31.2,17.0,0000.0,0017.99,0003.82,0002.00
2021-09-21 02:28:00,,0834.6,4.99,0.00,29.4,28.9,00.0,38.5,31.2,17.0,0000.0,0017.26,0003.75,0002.01
2021-09-21 02:29:00,,0834.7,4.98,0.00,29.4,28.9,00.0,38.5,31.3,17.0,0000.0,0016.04,0003.67,0002.01
2021-09-21 02:30:00,,0834.7,5.01,0.00,29.5,28.9,00.0,38.5,31.3,17.0,0000.0,0015.27,0003.59,0002.01
2021-09-21 02:31:00,,0834.7,5.00,0.00,29.5,28.9,00.0,38.5,31.3,17.1,0000.0,0014.48,0003.48,0002.00
2021-09-21 02:32:00,,0834.7,4.99,0.00,29.5,28.9,00.0,38.5,31.3,17.1,0000.0,0014.37,0003.37,0001.96
2021-09-21 02:33:00,,0834.7,5.01,0.00,29.5,28.9,00.0,38.5,31.3,16.9,0000.0,0012.91,0003.28,0001.95
2021-09-21 02:34:00,,0834.7,4.99,0.00,29.5,28.9,00.0,38.5,31.3,17.1,0000.0,0012.21,0003.21,0001.93
2021-09-21 02:35:00,,0834.6,5.01,0.00,29.5,28.9,00.0,38.5,31.3,17.3,0000.0,0012.23,0003.14,0001.92
2021-09-21 02:36:00,,0834.7,5.00,0.00,29.5,28.9,00.0,38.5,31.3,17.2,0000.0,0011.59,0003.05,0001.91
2021-09-21 02:37:00,,0834.8,5.02,0.00,29.5,28.9,00.0,38.5,31.3,17.2,0000.0,0011.55,0002.99,0001.90
2021-09-21 02:38:00,,0834.9,4.99,0.00,29.5,29.0,00.0,38.6,31.4,17.3,0000.0,0011.65,0002.95,0001.90
2021-09-21 02:39:00,,0835.0,5.01,0.00,29.6,29.0,00.0,38.6,31.4,17.3,0000.0,0011.66,0002.97,0001.90
2021-09-21 02:40:00,,0835.0,4.99,0.00,29.6,29.0,00.0,38.6,31.4,17.4,0000.0,0011.84,0002.95,0001.89
2021-09-21 02:41:00,,0835.0,5.00,0.00,29.6,29.0,00.0,38.6,31.4,17.3,0000.0,0011.77,0002.99,0001.89
2021-09-21 02:42:00,,0835.0,5.01,0.00,29.6,29.0,00.0,38.6,31.4,17.3,0000.0,0011.63,0003.02,0001.89
2021-09-21 02:43:00,,0835.1,5.00,0.00,29.6,29.0,00.0,38.6,31.4,17.4,0000.0,0011.13,0003.09,0001.91
2021-09-21 02:44:00,,0835.1,4.99,0.00,29.6,29.0,00.0,38.6,31.5,17.8,0000.0,0010.83,0003.08,0001.89
2021-09-21 02:45:00,,0835.1,5.01,0.00,29.7,29.1,00.0,38.6,31.5,18.0,0000.0,0011.80,0003.05,0001.88
2021-09-21 02:46:00,,0835.1,5.00,0.00,29.7,29.1,00.0,38.6,31.5,18.2,0000.0,0011.49,0003.07,0001.89
2021-09-21 02:47:00,,0835.2,5.00,0.00,29.7,29.1,00.0,38.7,31.5,18.3,0000.0,0010.47,0003.06,0001.90
2021-09-21 02:48:00,,0835.2,5.00,0.00,29.7,29.1,00.0,38.7,31.5,18.3,0000.0,0010.00,0003.05,0001.92
2021-09-21 02:49:00,,0835.4,5.01,0.00,29.7,29.1,00.0,38.7,31.5,18.5,0000.0,0009.66,0003.04,0001.93
2021-09-21 02:50:00,,0835.4,5.01,0.00,29.7,29.1,00.0,38.7,31.6,18.5,0000.0,0009.63,0003.07,0001.95
2021-09-21 02:51:00,,0835.4,5.00,0.00,29.8,29.2,00.0,38.7,31.6,18.6,0000.0,0009.47,0003.10,0001.96
2021-09-21 02:52:00,,0835.5,4.99,0.00,29.8,29.2,00.0,38.7,31.6,18.7,0000.0,0009.32,0003.09,0001.99
2021-09-21 02:53:00,,0835.5,5.00,0.00,29.8,29.2,00.0,38.7,31.6,18.8,0000.0,0009.18,0003.12,0002.00
2021-09-21 02:54:00,,0835.5,5.00,0.00,29.8,29.2,00.0,38.8,31.6,18.9,0000.0,0009.08,0003.15,0002.01
2021-09-21 02:55:00,,0835.5,4.99,0.00,29.8,29.2,00.0,38.8,31.6,19.0,0000.0,0008.67,0003.15,0002.03
2021-09-21 02:56:00,,0835.5,5.00,0.00,29.8,29.2,00.0,38.8,31.7,19.2,0000.0,0007.56,0003.17,0002.05
2021-09-21 02:57:00,,0835.4,5.00,0.00,29.8,29.2,00.0,38.8,31.7,19.2,0000.0,0007.93,0003.21,0002.07
2021-09-21 02:58:00,,0835.4,4.99,0.00,29.9,29.2,00.0,38.8,31.7,19.1,0000.0,0008.20,0003.25,0002.09
2021-09-21 02:59:00,,0835.4,4.99,0.00,29.9,29.2,00.0,38.8,31.7,19.2,0000.0,0009.37,0003.28,0002.10
